Location: Adrasan
(36.3319°N, 30.4314°E)
Time: 06:24:49
(UTC+00:00)

COSMO-SKYMED 1 - Visible Passes

Search period start: 21 May 2024 00:00
Search period end: 31 May 2024 00:00
Orbit: 621 x 623 km, 97.9° (Epoch: 20 May)

Date Brightness Start Highest point End Pass type
(mag) Time Alt. Az. Time Alt. Az. Time Alt. Az.
22 May 6.2 02:00:26 10° E 02:01:57 12° ENE 02:03:29 10° NE visible
23 May 5.7 02:16:48 10° ESE 02:19:47 18° ENE 02:22:44 10° NNE visible
28 May 5.8 02:11:08 10° ESE 02:13:44 16° ENE 02:16:20 10° NNE visible
